Year,Month,Day,Hour,Minute,Value (Times are PST for temperature in C)
2022,09,20,00,00,15.60
2022,09,20,00,01,15.50
2022,09,20,00,02,15.50
2022,09,20,00,03,15.50
2022,09,20,00,04,15.50
2022,09,20,00,05,15.50
2022,09,20,00,06,15.40
2022,09,20,00,07,15.40
2022,09,20,00,08,15.40
2022,09,20,00,09,15.40
2022,09,20,00,10,15.40
2022,09,20,00,11,15.50
2022,09,20,00,12,15.40
2022,09,20,00,13,15.40
2022,09,20,00,14,15.50
2022,09,20,00,15,15.50
2022,09,20,00,16,15.50
2022,09,20,00,17,15.50
2022,09,20,00,18,15.50
2022,09,20,00,19,15.50
2022,09,20,00,20,15.50
2022,09,20,00,21,15.50
2022,09,20,00,22,15.50
2022,09,20,00,23,15.50
2022,09,20,00,24,15.60
2022,09,20,00,25,15.60
2022,09,20,00,26,15.50
2022,09,20,00,27,15.50
2022,09,20,00,28,15.50
2022,09,20,00,29,15.40
2022,09,20,00,30,15.30
2022,09,20,00,31,15.20
2022,09,20,00,32,15.10
2022,09,20,00,33,15.10
2022,09,20,00,34,15.10
2022,09,20,00,35,15.10
2022,09,20,00,36,15.10
2022,09,20,00,37,15.10
2022,09,20,00,38,15.10
2022,09,20,00,39,15.00
2022,09,20,00,40,14.90
2022,09,20,00,41,14.90
2022,09,20,00,42,14.80
2022,09,20,00,43,14.80
2022,09,20,00,44,14.70
2022,09,20,00,45,14.70
2022,09,20,00,46,14.60
2022,09,20,00,47,14.60
2022,09,20,00,48,14.60
2022,09,20,00,49,14.60
2022,09,20,00,50,14.60
2022,09,20,00,51,14.60
2022,09,20,00,52,14.60
2022,09,20,00,53,14.60
2022,09,20,00,54,14.60
2022,09,20,00,55,14.60
2022,09,20,00,56,14.60
2022,09,20,00,57,14.60
2022,09,20,00,58,14.50
2022,09,20,00,59,14.50
2022,09,20,01,00,14.50
2022,09,20,01,01,14.50
2022,09,20,01,02,14.50
2022,09,20,01,03,14.50
2022,09,20,01,04,14.40
2022,09,20,01,05,14.40
2022,09,20,01,06,14.40
2022,09,20,01,07,14.40
2022,09,20,01,08,14.40
2022,09,20,01,09,14.40
2022,09,20,01,10,14.40
2022,09,20,01,11,14.40
2022,09,20,01,12,14.40
2022,09,20,01,13,14.40
2022,09,20,01,14,14.40
2022,09,20,01,15,14.40
2022,09,20,01,16,14.50
2022,09,20,01,17,14.40
2022,09,20,01,18,14.40
2022,09,20,01,19,14.40
2022,09,20,01,20,14.40
2022,09,20,01,21,14.40
2022,09,20,01,22,14.50
2022,09,20,01,23,14.50
2022,09,20,01,24,14.60
2022,09,20,01,25,14.70
2022,09,20,01,26,14.90
2022,09,20,01,27,15.00
2022,09,20,01,28,15.00
2022,09,20,01,29,15.00
2022,09,20,01,30,14.90
2022,09,20,01,31,14.80
2022,09,20,01,32,14.70
2022,09,20,01,33,14.70
2022,09,20,01,34,14.80
2022,09,20,01,35,14.90
2022,09,20,01,36,14.90
2022,09,20,01,37,15.00
2022,09,20,01,38,15.00
2022,09,20,01,39,15.10
2022,09,20,01,40,15.10
2022,09,20,01,41,15.20
2022,09,20,01,42,15.20
2022,09,20,01,43,15.20
2022,09,20,01,44,15.20
2022,09,20,01,45,15.10
2022,09,20,01,46,15.00
2022,09,20,01,47,14.90
2022,09,20,01,48,14.90
2022,09,20,01,49,14.80
2022,09,20,01,50,14.80
2022,09,20,01,51,14.80
2022,09,20,01,52,14.80
2022,09,20,01,53,14.80
2022,09,20,01,54,14.80
2022,09,20,01,55,14.90
2022,09,20,01,56,15.00
2022,09,20,01,57,15.10
2022,09,20,01,58,15.20
2022,09,20,01,59,15.20
2022,09,20,02,00,15.20
2022,09,20,02,01,15.20
2022,09,20,02,02,15.10
2022,09,20,02,03,15.00
2022,09,20,02,04,15.00
2022,09,20,02,05,14.90
2022,09,20,02,06,14.90
2022,09,20,02,07,14.90
2022,09,20,02,08,15.00
2022,09,20,02,09,15.10
2022,09,20,02,10,15.30
2022,09,20,02,11,15.40
2022,09,20,02,12,15.60
2022,09,20,02,13,15.80
2022,09,20,02,14,15.80
2022,09,20,02,15,15.80
2022,09,20,02,16,15.70
2022,09,20,02,17,15.50
2022,09,20,02,18,15.40
2022,09,20,02,19,15.30
2022,09,20,02,20,15.30
2022,09,20,02,21,15.20
2022,09,20,02,22,15.20
2022,09,20,02,23,15.20
2022,09,20,02,24,15.20
2022,09,20,02,25,15.20
2022,09,20,02,26,15.30
2022,09,20,02,27,15.40
2022,09,20,02,28,15.50
2022,09,20,02,29,15.70
2022,09,20,02,30,15.90
2022,09,20,02,31,16.10
2022,09,20,02,32,16.20
2022,09,20,02,33,16.30
2022,09,20,02,34,16.50
2022,09,20,02,35,16.60
2022,09,20,02,36,16.70
2022,09,20,02,37,16.90
2022,09,20,02,38,17.00
2022,09,20,02,39,17.10
2022,09,20,02,40,17.10
2022,09,20,02,41,17.20
2022,09,20,02,42,17.20
2022,09,20,02,43,17.30
2022,09,20,02,44,17.30
2022,09,20,02,45,17.40
2022,09,20,02,46,17.40
2022,09,20,02,47,17.40
2022,09,20,02,48,17.50
2022,09,20,02,49,17.50
2022,09,20,02,50,17.40
2022,09,20,02,51,17.40
2022,09,20,02,52,17.40
2022,09,20,02,53,17.40
2022,09,20,02,54,17.40
2022,09,20,02,55,17.30
2022,09,20,02,56,17.30
2022,09,20,02,57,17.30
2022,09,20,02,58,17.40
2022,09,20,02,59,17.40
2022,09,20,03,00,17.40
2022,09,20,03,01,17.40
2022,09,20,03,02,17.40
2022,09,20,03,03,17.30
2022,09,20,03,04,17.20
2022,09,20,03,05,17.20
2022,09,20,03,06,17.20
2022,09,20,03,07,17.20
2022,09,20,03,08,17.30
2022,09,20,03,09,17.30
2022,09,20,03,10,17.30
2022,09,20,03,11,17.30
2022,09,20,03,12,17.30
2022,09,20,03,13,17.30
2022,09,20,03,14,17.20
2022,09,20,03,15,17.20
2022,09,20,03,16,17.20
2022,09,20,03,17,17.30
2022,09,20,03,18,17.30
2022,09,20,03,19,17.40
2022,09,20,03,20,17.60
2022,09,20,03,21,17.70
2022,09,20,03,22,17.70
2022,09,20,03,23,17.80
2022,09,20,03,24,17.80
2022,09,20,03,25,17.80
2022,09,20,03,26,17.70
2022,09,20,03,27,17.70
2022,09,20,03,28,17.50
2022,09,20,03,29,17.20
2022,09,20,03,30,17.00
2022,09,20,03,31,16.80
2022,09,20,03,32,16.80
2022,09,20,03,33,16.80
2022,09,20,03,34,16.90
2022,09,20,03,35,17.00
2022,09,20,03,36,17.10
2022,09,20,03,37,17.10
2022,09,20,03,38,17.10
2022,09,20,03,39,17.20
2022,09,20,03,40,17.10
2022,09,20,03,41,17.00
2022,09,20,03,42,17.00
2022,09,20,03,43,16.90
2022,09,20,03,44,16.80
2022,09,20,03,45,16.70
2022,09,20,03,46,16.60
2022,09,20,03,47,16.50
2022,09,20,03,48,16.50
2022,09,20,03,49,16.50
2022,09,20,03,50,16.50
2022,09,20,03,51,16.50
2022,09,20,03,52,16.60
2022,09,20,03,53,16.70
2022,09,20,03,54,16.90
2022,09,20,03,55,17.10
2022,09,20,03,56,17.00
2022,09,20,03,57,16.80
2022,09,20,03,58,16.60
2022,09,20,03,59,16.40
2022,09,20,04,00,16.20
2022,09,20,04,01,16.10
2022,09,20,04,02,16.00
2022,09,20,04,03,16.10
2022,09,20,04,04,16.10
2022,09,20,04,05,16.10
2022,09,20,04,06,16.10
2022,09,20,04,07,16.10
2022,09,20,04,08,16.20
2022,09,20,04,09,16.20
2022,09,20,04,10,16.20
2022,09,20,04,11,16.10
2022,09,20,04,12,16.00
2022,09,20,04,13,16.00
2022,09,20,04,14,16.10
2022,09,20,04,15,16.20
2022,09,20,04,16,16.20
2022,09,20,04,17,16.30
2022,09,20,04,18,16.30
2022,09,20,04,19,16.10
2022,09,20,04,20,16.00
2022,09,20,04,21,16.00
2022,09,20,04,22,15.90
2022,09,20,04,23,15.90
2022,09,20,04,24,15.90
2022,09,20,04,25,15.90
2022,09,20,04,26,15.90
2022,09,20,04,27,15.80
2022,09,20,04,28,15.70
2022,09,20,04,29,15.40
2022,09,20,04,30,15.40
2022,09,20,04,31,15.50
2022,09,20,04,32,15.60
2022,09,20,04,33,15.70
2022,09,20,04,34,15.60
2022,09,20,04,35,15.50
2022,09,20,04,36,15.40
2022,09,20,04,37,15.20
2022,09,20,04,38,15.10
2022,09,20,04,39,15.00
2022,09,20,04,40,14.90
2022,09,20,04,41,14.80
2022,09,20,04,42,14.70
2022,09,20,04,43,14.70
2022,09,20,04,44,14.60
2022,09,20,04,45,14.60
2022,09,20,04,46,14.70
2022,09,20,04,47,14.80
2022,09,20,04,48,14.80
2022,09,20,04,49,14.80
2022,09,20,04,50,14.70
2022,09,20,04,51,14.70
2022,09,20,04,52,14.80
2022,09,20,04,53,14.80
2022,09,20,04,54,14.70
2022,09,20,04,55,14.70
2022,09,20,04,56,14.70
2022,09,20,04,57,14.80
2022,09,20,04,58,14.90
2022,09,20,04,59,15.00
2022,09,20,05,00,15.10
2022,09,20,05,01,15.10
2022,09,20,05,02,15.10
2022,09,20,05,03,15.10
2022,09,20,05,04,15.00
2022,09,20,05,05,14.80
2022,09,20,05,06,14.70
2022,09,20,05,07,14.60
2022,09,20,05,08,14.60
2022,09,20,05,09,14.70
2022,09,20,05,10,14.80
2022,09,20,05,11,14.80
2022,09,20,05,12,14.80
2022,09,20,05,13,14.80
2022,09,20,05,14,14.80
2022,09,20,05,15,14.70
2022,09,20,05,16,14.70
2022,09,20,05,17,14.70
2022,09,20,05,18,14.50
2022,09,20,05,19,14.40
2022,09,20,05,20,14.40
2022,09,20,05,21,14.30
2022,09,20,05,22,14.20
2022,09,20,05,23,14.20
2022,09,20,05,24,14.20
2022,09,20,05,25,14.20
2022,09,20,05,26,14.20
2022,09,20,05,27,14.20
2022,09,20,05,28,14.20
2022,09,20,05,29,14.10
2022,09,20,05,30,14.10
2022,09,20,05,31,14.10
2022,09,20,05,32,14.10
2022,09,20,05,33,14.10
2022,09,20,05,34,14.10
2022,09,20,05,35,14.20
2022,09,20,05,36,14.20
2022,09,20,05,37,14.20
2022,09,20,05,38,14.20
2022,09,20,05,39,14.20
2022,09,20,05,40,14.30
2022,09,20,05,41,14.40
2022,09,20,05,42,14.50
2022,09,20,05,43,14.60
2022,09,20,05,44,14.70
2022,09,20,05,45,14.80
2022,09,20,05,46,14.80
2022,09,20,05,47,14.80
2022,09,20,05,48,15.00
2022,09,20,05,49,15.10
2022,09,20,05,50,15.10
2022,09,20,05,51,15.30
2022,09,20,05,52,15.30
2022,09,20,05,53,15.30
2022,09,20,05,54,15.30
2022,09,20,05,55,15.30
2022,09,20,05,56,15.30
2022,09,20,05,57,15.20
2022,09,20,05,58,15.10
2022,09,20,05,59,15.00
2022,09,20,06,00,14.90
2022,09,20,06,01,14.90
2022,09,20,06,02,14.90
2022,09,20,06,03,14.90
2022,09,20,06,04,14.90
2022,09,20,06,05,14.90
2022,09,20,06,06,14.90
2022,09,20,06,07,14.90
2022,09,20,06,08,14.90
2022,09,20,06,09,14.90
2022,09,20,06,10,14.90
2022,09,20,06,11,14.90
2022,09,20,06,12,14.80
2022,09,20,06,13,14.80
2022,09,20,06,14,14.70
2022,09,20,06,15,14.50
2022,09,20,06,16,14.40
2022,09,20,06,17,14.40
2022,09,20,06,18,14.30
2022,09,20,06,19,14.30
2022,09,20,06,20,14.30
2022,09,20,06,21,14.30
2022,09,20,06,22,14.20
2022,09,20,06,23,14.20
2022,09,20,06,24,14.20
2022,09,20,06,25,14.20
2022,09,20,06,26,14.10
2022,09,20,06,27,14.10
2022,09,20,06,28,14.00
2022,09,20,06,29,14.00
2022,09,20,06,30,14.00
2022,09,20,06,31,14.00
2022,09,20,06,32,14.00
2022,09,20,06,33,13.90
2022,09,20,06,34,13.90
2022,09,20,06,35,13.80
2022,09,20,06,36,13.80
2022,09,20,06,37,13.70
2022,09,20,06,38,13.70
2022,09,20,06,39,13.60
2022,09,20,06,40,13.60
2022,09,20,06,41,13.50
2022,09,20,06,42,13.50
2022,09,20,06,43,13.50
2022,09,20,06,44,13.40
2022,09,20,06,45,13.40
2022,09,20,06,46,13.40
2022,09,20,06,47,13.30
2022,09,20,06,48,13.30
2022,09,20,06,49,13.30
2022,09,20,06,50,13.30
2022,09,20,06,51,13.40
2022,09,20,06,52,13.40
2022,09,20,06,53,13.40
2022,09,20,06,54,13.50
2022,09,20,06,55,13.50
2022,09,20,06,56,13.50
2022,09,20,06,57,13.60
2022,09,20,06,58,13.60
2022,09,20,06,59,13.60
2022,09,20,07,00,13.60
2022,09,20,07,01,13.60
2022,09,20,07,02,13.60
2022,09,20,07,03,13.60
2022,09,20,07,04,13.60
2022,09,20,07,05,13.60
2022,09,20,07,06,13.60
2022,09,20,07,07,13.60
2022,09,20,07,08,13.60
2022,09,20,07,09,13.60
2022,09,20,07,10,13.70
2022,09,20,07,11,13.80
2022,09,20,07,12,13.80
2022,09,20,07,13,13.80
2022,09,20,07,14,13.90
2022,09,20,07,15,14.00
2022,09,20,07,16,14.10
2022,09,20,07,17,14.20
2022,09,20,07,18,14.30
2022,09,20,07,19,14.40
2022,09,20,07,20,14.40
2022,09,20,07,21,14.40
2022,09,20,07,22,14.40
2022,09,20,07,23,14.40
2022,09,20,07,24,14.40
2022,09,20,07,25,14.40
2022,09,20,07,26,14.40
2022,09,20,07,27,14.40
2022,09,20,07,28,14.50
2022,09,20,07,29,14.60
2022,09,20,07,30,14.60
2022,09,20,07,31,14.60
2022,09,20,07,32,14.60
2022,09,20,07,33,14.70
2022,09,20,07,34,14.70
2022,09,20,07,35,14.70
2022,09,20,07,36,14.80
2022,09,20,07,37,14.80
2022,09,20,07,38,14.90
2022,09,20,07,39,14.90
2022,09,20,07,40,14.90
2022,09,20,07,41,14.90
2022,09,20,07,42,14.90
2022,09,20,07,43,15.00
2022,09,20,07,44,15.00
2022,09,20,07,45,15.00
2022,09,20,07,46,15.00
2022,09,20,07,47,15.10
2022,09,20,07,48,15.10
2022,09,20,07,49,15.20
2022,09,20,07,50,15.20
2022,09,20,07,51,15.20
2022,09,20,07,52,15.30
2022,09,20,07,53,15.30
2022,09,20,07,54,15.30
2022,09,20,07,55,15.40
2022,09,20,07,56,15.60
2022,09,20,07,57,15.70
2022,09,20,07,58,15.80
2022,09,20,07,59,15.90
2022,09,20,08,00,16.00
2022,09,20,08,01,16.20
2022,09,20,08,02,16.30
2022,09,20,08,03,16.30
2022,09,20,08,04,16.40
2022,09,20,08,05,16.50
2022,09,20,08,06,16.60
2022,09,20,08,07,16.60
2022,09,20,08,08,16.60
2022,09,20,08,09,16.70
2022,09,20,08,10,16.70
2022,09,20,08,11,16.70
2022,09,20,08,12,16.70
2022,09,20,08,13,16.70
2022,09,20,08,14,16.70
2022,09,20,08,15,16.60
2022,09,20,08,16,16.60
2022,09,20,08,17,16.60
2022,09,20,08,18,16.60
2022,09,20,08,19,16.80
2022,09,20,08,20,17.10
2022,09,20,08,21,17.30
2022,09,20,08,22,17.40
2022,09,20,08,23,17.40
2022,09,20,08,24,17.40
2022,09,20,08,25,17.40
2022,09,20,08,26,17.40
2022,09,20,08,27,17.40
2022,09,20,08,28,17.40
2022,09,20,08,29,17.30
2022,09,20,08,30,17.30
2022,09,20,08,31,17.40
2022,09,20,08,32,17.50
2022,09,20,08,33,17.40
2022,09,20,08,34,17.40
2022,09,20,08,35,17.30
2022,09,20,08,36,17.30
2022,09,20,08,37,17.20
2022,09,20,08,38,17.20
2022,09,20,08,39,17.10
2022,09,20,08,40,17.00
2022,09,20,08,41,17.00
2022,09,20,08,42,17.00
2022,09,20,08,43,17.10
2022,09,20,08,44,17.20
2022,09,20,08,45,17.20
2022,09,20,08,46,17.20
2022,09,20,08,47,17.30
2022,09,20,08,48,17.40
2022,09,20,08,49,17.40
2022,09,20,08,50,17.40
2022,09,20,08,51,17.40
2022,09,20,08,52,17.50
2022,09,20,08,53,17.50
2022,09,20,08,54,17.50
2022,09,20,08,55,17.60
2022,09,20,08,56,17.80
2022,09,20,08,57,18.00
2022,09,20,08,58,18.10
2022,09,20,08,59,18.10
2022,09,20,09,00,18.20
2022,09,20,09,01,18.30
2022,09,20,09,02,18.20
2022,09,20,09,03,18.20
2022,09,20,09,04,18.20
2022,09,20,09,05,18.40
2022,09,20,09,06,18.40
2022,09,20,09,07,18.40
2022,09,20,09,08,18.40
2022,09,20,09,09,18.30
2022,09,20,09,10,18.20
2022,09,20,09,11,18.10
2022,09,20,09,12,18.00
2022,09,20,09,13,17.90
2022,09,20,09,14,18.00
2022,09,20,09,15,18.10
2022,09,20,09,16,18.20
2022,09,20,09,17,18.20
2022,09,20,09,18,18.20
2022,09,20,09,19,18.10
2022,09,20,09,20,18.20
2022,09,20,09,21,18.30
2022,09,20,09,22,18.30
2022,09,20,09,23,18.40
2022,09,20,09,24,18.40
2022,09,20,09,25,18.40
2022,09,20,09,26,18.30
2022,09,20,09,27,18.20
2022,09,20,09,28,18.10
2022,09,20,09,29,18.10
2022,09,20,09,30,18.30
2022,09,20,09,31,18.40
2022,09,20,09,32,18.40
2022,09,20,09,33,18.30
2022,09,20,09,34,18.20
2022,09,20,09,35,18.20
2022,09,20,09,36,18.20
2022,09,20,09,37,18.20
2022,09,20,09,38,18.20
2022,09,20,09,39,18.20
2022,09,20,09,40,18.20
2022,09,20,09,41,18.10
2022,09,20,09,42,18.10
2022,09,20,09,43,18.10
2022,09,20,09,44,18.00
2022,09,20,09,45,18.00
2022,09,20,09,46,18.00
2022,09,20,09,47,18.10
2022,09,20,09,48,18.20
2022,09,20,09,49,18.30
2022,09,20,09,50,18.30
2022,09,20,09,51,18.40
2022,09,20,09,52,18.50
2022,09,20,09,53,18.60
2022,09,20,09,54,18.60
2022,09,20,09,55,18.40
2022,09,20,09,56,18.30
2022,09,20,09,57,18.30
2022,09,20,09,58,18.30
2022,09,20,09,59,18.40
2022,09,20,10,00,18.40
2022,09,20,10,01,18.50
2022,09,20,10,02,18.50
2022,09,20,10,03,18.40
2022,09,20,10,04,18.40
2022,09,20,10,05,18.30
2022,09,20,10,06,18.20
2022,09,20,10,07,18.30
2022,09,20,10,08,18.40
2022,09,20,10,09,18.40
2022,09,20,10,10,18.40
2022,09,20,10,11,18.30
2022,09,20,10,12,18.30
2022,09,20,10,13,18.20
2022,09,20,10,14,18.20
2022,09,20,10,15,18.20
2022,09,20,10,16,18.30
2022,09,20,10,17,18.40
2022,09,20,10,18,18.50
2022,09,20,10,19,18.50
2022,09,20,10,20,18.60
2022,09,20,10,21,18.60
2022,09,20,10,22,18.70
2022,09,20,10,23,18.70
2022,09,20,10,24,18.80
2022,09,20,10,25,18.90
2022,09,20,10,26,19.10
2022,09,20,10,27,19.00
2022,09,20,10,28,18.80
2022,09,20,10,29,18.80
2022,09,20,10,30,18.70
2022,09,20,10,31,18.70
2022,09,20,10,32,18.70
2022,09,20,10,33,18.70
2022,09,20,10,34,18.70
2022,09,20,10,35,18.60
2022,09,20,10,36,18.50
2022,09,20,10,37,18.40
2022,09,20,10,38,18.40
2022,09,20,10,39,18.40
2022,09,20,10,40,18.40
2022,09,20,10,41,18.50
2022,09,20,10,42,18.60
2022,09,20,10,43,18.60
2022,09,20,10,44,18.50
2022,09,20,10,45,18.40
2022,09,20,10,46,18.30
2022,09,20,10,47,18.30
2022,09,20,10,48,18.30
2022,09,20,10,49,18.50
2022,09,20,10,50,18.60
2022,09,20,10,51,18.80
2022,09,20,10,52,18.80
2022,09,20,10,53,18.70
2022,09,20,10,54,18.70
2022,09,20,10,55,18.60
2022,09,20,10,56,18.60
2022,09,20,10,57,18.50
2022,09,20,10,58,18.40
2022,09,20,10,59,18.50
2022,09,20,11,00,18.50
2022,09,20,11,01,18.50
2022,09,20,11,02,18.50
2022,09,20,11,03,18.50
2022,09,20,11,04,18.60
2022,09,20,11,05,18.60
2022,09,20,11,06,18.60
2022,09,20,11,07,18.60
2022,09,20,11,08,18.60
2022,09,20,11,09,18.60
2022,09,20,11,10,18.50
2022,09,20,11,11,18.50
2022,09,20,11,12,18.60
2022,09,20,11,13,18.60
2022,09,20,11,14,18.70
2022,09,20,11,15,18.70
2022,09,20,11,16,18.60
2022,09,20,11,17,18.60
2022,09,20,11,18,18.70
2022,09,20,11,19,19.00
2022,09,20,11,20,19.20
2022,09,20,11,21,19.20
2022,09,20,11,22,19.20
2022,09,20,11,23,19.10
2022,09,20,11,24,19.10
2022,09,20,11,25,19.10
2022,09,20,11,26,19.10
2022,09,20,11,27,18.90
2022,09,20,11,28,18.80
2022,09,20,11,29,18.60
2022,09,20,11,30,18.50
2022,09,20,11,31,18.40
2022,09,20,11,32,18.30
2022,09,20,11,33,18.40
2022,09,20,11,34,18.70
2022,09,20,11,35,19.00
2022,09,20,11,36,19.20
2022,09,20,11,37,19.20
2022,09,20,11,38,19.20
2022,09,20,11,39,19.10
2022,09,20,11,40,19.10
2022,09,20,11,41,19.10
2022,09,20,11,42,19.00
2022,09,20,11,43,18.80
2022,09,20,11,44,18.60
2022,09,20,11,45,18.60
2022,09,20,11,46,18.50
2022,09,20,11,47,18.50
2022,09,20,11,48,18.50
2022,09,20,11,49,18.40
2022,09,20,11,50,18.40
2022,09,20,11,51,18.30
2022,09,20,11,52,18.40
2022,09,20,11,53,18.60
2022,09,20,11,54,18.80
2022,09,20,11,55,18.80
2022,09,20,11,56,18.80
2022,09,20,11,57,18.80
2022,09,20,11,58,18.80
2022,09,20,11,59,18.80
2022,09,20,12,00,18.80
2022,09,20,12,01,18.70
2022,09,20,12,02,18.70
2022,09,20,12,03,18.70
2022,09,20,12,04,18.60
2022,09,20,12,05,18.60
2022,09,20,12,06,18.60
2022,09,20,12,07,18.60
2022,09,20,12,08,18.60
2022,09,20,12,09,18.60
2022,09,20,12,10,18.60
2022,09,20,12,11,18.50
2022,09,20,12,12,18.50
2022,09,20,12,13,18.50
2022,09,20,12,14,18.60
2022,09,20,12,15,18.60
2022,09,20,12,16,18.70
2022,09,20,12,17,18.70
2022,09,20,12,18,18.70
2022,09,20,12,19,18.60
2022,09,20,12,20,18.50
2022,09,20,12,21,18.50
2022,09,20,12,22,18.40
2022,09,20,12,23,18.40
2022,09,20,12,24,18.40
2022,09,20,12,25,18.40
2022,09,20,12,26,18.40
2022,09,20,12,27,18.40
2022,09,20,12,28,18.40
2022,09,20,12,29,18.30
2022,09,20,12,30,18.40
2022,09,20,12,31,18.40
2022,09,20,12,32,18.50
2022,09,20,12,33,18.60
2022,09,20,12,34,18.60
2022,09,20,12,35,18.60
2022,09,20,12,36,18.70
2022,09,20,12,37,18.60
2022,09,20,12,38,18.60
2022,09,20,12,39,18.60
2022,09,20,12,40,18.70
2022,09,20,12,41,18.80
2022,09,20,12,42,18.80
2022,09,20,12,43,18.80
2022,09,20,12,44,18.80
2022,09,20,12,45,18.70
2022,09,20,12,46,18.70
2022,09,20,12,47,18.70
2022,09,20,12,48,18.70
2022,09,20,12,49,18.70
2022,09,20,12,50,18.70
2022,09,20,12,51,18.70
2022,09,20,12,52,18.80
2022,09,20,12,53,19.00
2022,09,20,12,54,19.20
2022,09,20,12,55,19.30
2022,09,20,12,56,19.30
2022,09,20,12,57,19.30
2022,09,20,12,58,19.30
2022,09,20,12,59,19.40
2022,09,20,13,00,19.40
2022,09,20,13,01,19.40
2022,09,20,13,02,19.40
2022,09,20,13,03,19.60
2022,09,20,13,04,19.40
2022,09,20,13,05,19.40
2022,09,20,13,06,19.30
2022,09,20,13,07,19.30
2022,09,20,13,08,19.20
2022,09,20,13,09,19.10
2022,09,20,13,10,19.00
2022,09,20,13,11,18.90
2022,09,20,13,12,18.80
2022,09,20,13,13,18.80
2022,09,20,13,14,18.90
2022,09,20,13,15,19.00
2022,09,20,13,16,19.10
2022,09,20,13,17,19.10
2022,09,20,13,18,19.10
2022,09,20,13,19,19.00
2022,09,20,13,20,18.80
2022,09,20,13,21,18.80
2022,09,20,13,22,18.70
2022,09,20,13,23,18.80
2022,09,20,13,24,18.80
2022,09,20,13,25,18.70
2022,09,20,13,26,18.70
2022,09,20,13,27,18.70
2022,09,20,13,28,18.70
2022,09,20,13,29,18.70
2022,09,20,13,30,18.70
2022,09,20,13,31,18.80
2022,09,20,13,32,18.90
2022,09,20,13,33,18.90
2022,09,20,13,34,19.00
2022,09,20,13,35,19.10
2022,09,20,13,36,19.20
2022,09,20,13,37,19.20
2022,09,20,13,38,19.30
2022,09,20,13,39,19.40
2022,09,20,13,40,19.40
2022,09,20,13,41,19.40
2022,09,20,13,42,19.40
2022,09,20,13,43,19.50
2022,09,20,13,44,19.60
2022,09,20,13,45,19.60
2022,09,20,13,46,19.60
2022,09,20,13,47,19.60
2022,09,20,13,48,19.70
2022,09,20,13,49,19.70
2022,09,20,13,50,19.70
2022,09,20,13,51,19.60
2022,09,20,13,52,19.50
2022,09,20,13,53,19.50
2022,09,20,13,54,19.50
2022,09,20,13,55,19.50
2022,09,20,13,56,19.50
2022,09,20,13,57,19.40
2022,09,20,13,58,19.40
2022,09,20,13,59,19.40
2022,09,20,14,00,19.40
2022,09,20,14,01,19.50
2022,09,20,14,02,19.60
2022,09,20,14,03,19.70
2022,09,20,14,04,19.80
2022,09,20,14,05,19.80
2022,09,20,14,06,19.90
2022,09,20,14,07,20.00
2022,09,20,14,08,20.00
2022,09,20,14,09,20.00
2022,09,20,14,10,20.00
2022,09,20,14,11,20.00
2022,09,20,14,12,20.10
2022,09,20,14,13,20.20
2022,09,20,14,14,20.20
2022,09,20,14,15,20.30
2022,09,20,14,16,20.30
2022,09,20,14,17,20.30
2022,09,20,14,18,20.30
2022,09,20,14,19,20.30
2022,09,20,14,20,20.30
2022,09,20,14,21,20.30
2022,09,20,14,22,20.30
2022,09,20,14,23,20.30
2022,09,20,14,24,20.30
2022,09,20,14,25,20.30
2022,09,20,14,26,20.30
2022,09,20,14,27,20.30
2022,09,20,14,28,20.30
2022,09,20,14,29,20.40
2022,09,20,14,30,20.40
2022,09,20,14,31,20.40
2022,09,20,14,32,20.30
2022,09,20,14,33,20.20
2022,09,20,14,34,20.20
2022,09,20,14,35,20.20
2022,09,20,14,36,20.20
2022,09,20,14,37,20.20
2022,09,20,14,38,20.20
2022,09,20,14,39,20.30
2022,09,20,14,40,20.30
2022,09,20,14,41,20.40
2022,09,20,14,42,20.60
2022,09,20,14,43,20.80
2022,09,20,14,44,21.10
2022,09,20,14,45,21.20
2022,09,20,14,46,21.20
2022,09,20,14,47,21.20
2022,09,20,14,48,21.20
2022,09,20,14,49,21.10
2022,09,20,14,50,21.00
2022,09,20,14,51,21.00
2022,09,20,14,52,20.90
2022,09,20,14,53,20.90
2022,09,20,14,54,20.90
2022,09,20,14,55,20.90
2022,09,20,14,56,20.90
2022,09,20,14,57,20.80
2022,09,20,14,58,20.80
2022,09,20,14,59,20.80
2022,09,20,15,00,20.70
2022,09,20,15,01,20.80
2022,09,20,15,02,20.80
2022,09,20,15,03,20.80
2022,09,20,15,04,20.80
2022,09,20,15,05,20.90
2022,09,20,15,06,20.90
2022,09,20,15,07,20.80
2022,09,20,15,08,20.80
2022,09,20,15,09,20.70
2022,09,20,15,10,20.70
2022,09,20,15,11,20.80
2022,09,20,15,12,20.80
2022,09,20,15,13,20.80
2022,09,20,15,14,20.90
2022,09,20,15,15,20.90
2022,09,20,15,16,20.90
2022,09,20,15,17,20.90
2022,09,20,15,18,20.90
2022,09,20,15,19,20.90
2022,09,20,15,20,20.90
2022,09,20,15,21,20.80
2022,09,20,15,22,20.80
2022,09,20,15,23,20.90
2022,09,20,15,24,21.00
2022,09,20,15,25,21.10
2022,09,20,15,26,21.20
2022,09,20,15,27,21.30
2022,09,20,15,28,21.40
2022,09,20,15,29,21.50
2022,09,20,15,30,21.60
2022,09,20,15,31,21.60
2022,09,20,15,32,21.70
2022,09,20,15,33,21.60
2022,09,20,15,34,21.60
2022,09,20,15,35,21.60
2022,09,20,15,36,21.60
2022,09,20,15,37,21.60
2022,09,20,15,38,21.60
2022,09,20,15,39,21.50
2022,09,20,15,40,21.40
2022,09,20,15,41,21.30
2022,09,20,15,42,21.20
2022,09,20,15,43,21.20
2022,09,20,15,44,21.10
2022,09,20,15,45,21.10
2022,09,20,15,46,21.10
2022,09,20,15,47,21.10
2022,09,20,15,48,21.10
2022,09,20,15,49,21.20
2022,09,20,15,50,21.20
2022,09,20,15,51,21.30
2022,09,20,15,52,21.30
2022,09,20,15,53,21.40
2022,09,20,15,54,21.50
2022,09,20,15,55,21.50
2022,09,20,15,56,21.50
2022,09,20,15,57,21.60
2022,09,20,15,58,21.60
2022,09,20,15,59,21.70
2022,09,20,16,00,21.70
2022,09,20,16,01,21.80
2022,09,20,16,02,21.80
2022,09,20,16,03,21.90
2022,09,20,16,04,22.00
2022,09,20,16,05,22.00
2022,09,20,16,06,22.10
2022,09,20,16,07,22.20
2022,09,20,16,08,22.30
2022,09,20,16,09,22.40
2022,09,20,16,10,22.50
2022,09,20,16,11,22.70
2022,09,20,16,12,22.80
2022,09,20,16,13,22.90
2022,09,20,16,14,23.00
2022,09,20,16,15,23.00
2022,09,20,16,16,23.00
2022,09,20,16,17,23.10
2022,09,20,16,18,23.10
2022,09,20,16,19,23.10
2022,09,20,16,20,23.00
2022,09,20,16,21,23.00
2022,09,20,16,22,23.00
2022,09,20,16,23,23.00
2022,09,20,16,24,23.00
2022,09,20,16,25,22.90
2022,09,20,16,26,22.80
2022,09,20,16,27,22.70
2022,09,20,16,28,22.60
2022,09,20,16,29,22.50
2022,09,20,16,30,22.40
2022,09,20,16,31,22.30
2022,09,20,16,32,22.30
2022,09,20,16,33,22.30
2022,09,20,16,34,22.30
2022,09,20,16,35,22.30
2022,09,20,16,36,22.40
2022,09,20,16,37,22.40
2022,09,20,16,38,22.50
2022,09,20,16,39,22.50
2022,09,20,16,40,22.60
2022,09,20,16,41,22.60
2022,09,20,16,42,22.60
2022,09,20,16,43,22.70
2022,09,20,16,44,22.80
2022,09,20,16,45,23.00
2022,09,20,16,46,23.10
2022,09,20,16,47,23.10
2022,09,20,16,48,23.10
2022,09,20,16,49,23.10
2022,09,20,16,50,23.10
2022,09,20,16,51,23.00
2022,09,20,16,52,22.90
2022,09,20,16,53,22.80
2022,09,20,16,54,22.70
2022,09,20,16,55,22.70
2022,09,20,16,56,22.60
2022,09,20,16,57,22.60
2022,09,20,16,58,22.60
2022,09,20,16,59,22.50
2022,09,20,17,00,22.50
2022,09,20,17,01,22.40
2022,09,20,17,02,22.30
2022,09,20,17,03,22.30
2022,09,20,17,04,22.20
2022,09,20,17,05,22.10
2022,09,20,17,06,22.10
2022,09,20,17,07,22.00
2022,09,20,17,08,22.00
2022,09,20,17,09,21.90
2022,09,20,17,10,21.90
2022,09,20,17,11,21.90
2022,09,20,17,12,21.80
2022,09,20,17,13,21.80
2022,09,20,17,14,21.80
2022,09,20,17,15,21.80
2022,09,20,17,16,21.80
2022,09,20,17,17,21.70
2022,09,20,17,18,21.70
2022,09,20,17,19,21.60